Flag for Turkey Weather past 2 weeks in Ankara, Turkey

Now
75 °F

Sunny.


Feels Like: 77 °F
Forecast: 51 / 83 °F
Wind: 10 mph from East

Location: Ankara / Esenboga

Current Time: Aug 28, 2015 at 8:19:40 PM

Latest Report: Aug 28, 2015 at 7:50 PM


Visibility: 10 mi

Pressure: 30.12 "Hg (27.25 "Hg at 871m altitude)

Humidity: 29%

Dew point: 41 °F

Location of AnkaraLocation

Historic Weather in Ankara — Graph

°F

Ankara temperature yesterday

Maximum temperature yesterday: 79 °F (at 3:20 PM)
Minimum temperature yesterday: 52 °F (at 6:20 AM)
Average temperature yesterday: 67 °F

Past Weeks' High & Low Weather Summary

 TemperatureHumidityPressure
High91 °F (Aug 14, 2:20 PM)94% (Aug 15, 5:20 AM)30.18 "Hg (Aug 15, 5:20 AM)
Low46 °F (Aug 26, 6:20 AM)21% (Aug 20, 6:20 PM)29.83 "Hg (Aug 23, 5:50 PM)
Average72 °F54%29.98 "Hg
* Reported Aug 13 6:20 PM — Aug 28 6:50 PM, Ankara, Weather by CustomWeather, © 2015

Note: Actual official high and low records may vary slightly from our data, if they occured in-between our weather recording intervals... More about our weather records

Advertising

Ankara weather history for previous 24 hours

 ConditionsComfort  
Time TempWeatherWind HumidityBarometerVisibility
6:50 PM
Fri, Aug 28
77 °FPassing clouds.12 mph28%30.12 "HgN/A
6:20 PM79 °FPassing clouds.13 mph24%30.12 "HgN/A
5:50 PM79 °FPassing clouds.13 mph23%30.12 "HgN/A
5:20 PM81 °FPassing clouds.12 mph21%30.12 "HgN/A
4:50 PM81 °FPassing clouds.12 mph21%30.12 "HgN/A
4:20 PM81 °FPassing clouds.13 mph21%30.12 "HgN/A
3:50 PM79 °FPassing clouds.13 mph24%30.12 "HgN/A
3:20 PM79 °FPassing clouds.12 mph24%30.12 "HgN/A
2:50 PM79 °FPassing clouds.13 mph24%30.15 "HgN/A
2:20 PM77 °FPassing clouds.12 mph30%30.15 "HgN/A
1:50 PM77 °FPassing clouds.13 mph30%30.15 "HgN/A
1:20 PM75 °FPassing clouds.8 mph31%30.15 "HgN/A
12:50 PM77 °FPassing clouds.12 mph30%30.15 "HgN/A
12:20 PM75 °FPassing clouds.13 mph27%30.18 "HgN/A
11:50 AM73 °FPassing clouds.13 mph27%30.18 "HgN/A
11:20 AM73 °FPassing clouds.12 mph25%30.18 "HgN/A
10:50 AM72 °FSunny.7 mph27%30.18 "Hg10 mi
10:20 AM70 °FPassing clouds.7 mph31%30.18 "HgN/A
9:50 AM68 °FPassing clouds.6 mph35%30.18 "HgN/A
9:20 AM64 °FSunny.5 mph40%30.18 "Hg10 mi
8:50 AM63 °FSunny.3 mph45%30.18 "Hg10 mi
8:20 AM57 °FSunny.5 mph55%30.18 "Hg10 mi
7:50 AM54 °FPassing clouds.3 mph67%30.18 "HgN/A
7:20 AM52 °FSunny.3 mph67%30.18 "Hg10 mi
6:50 AM48 °FClear.3 mph71%30.18 "Hg10 mi
5:50 AM48 °FClear.2 mph76%30.15 "Hg10 mi
5:20 AM50 °FClear.3 mph71%30.15 "Hg10 mi
4:50 AM50 °FClear.1 mph71%30.15 "Hg10 mi
4:20 AM50 °FPassing clouds.3 mph76%30.15 "HgN/A
3:50 AM54 °FPassing clouds.5 mph72%30.15 "HgN/A
3:20 AM57 °FPassing clouds.3 mph63%30.15 "HgN/A
2:50 AM57 °FClear.2 mph63%30.15 "Hg10 mi
2:20 AM59 °FClear.6 mph63%30.15 "Hg10 mi
1:50 AM59 °FClear.6 mph59%30.15 "Hg10 mi
1:20 AM61 °FClear.7 mph55%30.15 "Hg10 mi
12:50 AM63 °FClear.7 mph56%30.15 "Hg10 mi
12:20 AM63 °FClear.6 mph56%30.15 "Hg10 mi
11:50 PM
Thu, Aug 27
64 °FPassing clouds.3 mph52%30.15 "HgN/A
11:20 PM66 °FPassing clouds.6 mph49%30.15 "HgN/A
10:50 PM66 °FClear.12 mph56%30.15 "Hg10 mi
10:20 PM66 °FClear.9 mph56%30.15 "Hg10 mi
9:50 PM68 °FClear.13 mph53%30.12 "Hg10 mi
9:20 PM70 °FClear.13 mph43%30.12 "Hg10 mi
8:50 PM72 °FClear.9 mph44%30.12 "Hg10 mi
8:20 PM73 °FPassing clouds.8 mph41%30.09 "HgN/A
Weather by CustomWeather, © 2015

See weather overviewHow to use our weather pages